Latest Weather Observations for Samuel Hill

IDQ60801

Issued at 2:31 pm EST Sunday 26 April 2015 (issued every 30 minutes, with the page automatically refreshed every 10 minutes)

About weather observations | Map of weather stations | Latest weather observations for QLD | Other Formats
Station Details ID: 033308 Name: SAMUEL HILL AERO Lat: -22.74 Lon: 150.66 Height: 31.0 m
Data from the previous 72 hours. | See also: Recent months at Samuel Hill
Date/Time
EST
Temp
°C
App
Temp
°C
Dew
Point
Rel
Hum
%
Delta-T
°C
Wind Press
QNH
hPa
Press
MSL
hPa
Rain
since 9 am
mm
Dir
 
Spd
km/h
Gust
km/h
Spd
kts
Gust
kts
26/02:30pm 27.2 22.9 3.0 21 12.0 SW 15 24 8 13 1012.4 1012.2 0.0
26/02:00pm 27.1 23.7 4.2 23 11.6 SW 11 19 6 10 1012.5 1012.3 0.0
26/01:30pm 26.7 23.7 3.9 23 11.4 SSW 9 19 5 10 1012.7 1012.5 0.0
26/01:00pm 25.8 21.8 3.1 23 11.1 SW 13 17 7 9 1012.8 1012.6 0.0
26/12:30pm 25.8 21.4 2.5 22 11.3 SSW 15 22 8 12 1013.1 1012.9 0.0
26/12:00pm 25.5 21.0 4.0 25 10.7 SSW 17 30 9 16 1013.4 1013.2 0.0
26/11:30am 25.2 20.7 4.3 26 10.4 SSE 17 24 9 13 1013.7 1013.5 0.0
26/11:00am 24.7 19.7 3.4 25 10.4 S 19 32 10 17 1014.0 1013.8 0.0
26/10:30am 24.5 20.6 5.3 29 9.7 S 15 24 8 13 1014.2 1014.0 0.0
26/10:00am 24.1 20.2 5.5 30 9.4 S 15 28 8 15 1014.6 1014.5 0.0
26/09:30am 23.2 18.1 4.2 29 9.3 SSW 20 32 11 17 1014.9 1014.8 0.0
26/09:00am 23.2 18.4 4.7 30 9.2 S 19 32 10 17 1014.6 1014.5 0.0
26/08:30am 23.0 19.3 4.5 30 9.1 SSW 13 22 7 12 1014.3 1014.1 0.0
26/08:00am 22.8 18.8 4.8 31 8.9 SSW 15 20 8 11 1014.2 1014.0 0.0
26/07:30am 22.2 18.1 4.3 31 8.8 SSW 15 20 8 11 1013.9 1013.7 0.0
26/07:00am 21.5 17.7 4.1 32 8.4 SW 13 20 7 11 1013.5 1013.3 0.0
26/06:30am 20.6 17.0 5.0 36 7.6 SSW 13 26 7 14 1013.2 1013.0 0.0
26/06:00am 20.1 16.8 4.6 36 7.5 SSW 11 13 6 7 1012.7 1012.5 0.0
26/05:30am 21.7 17.3 4.7 33 8.4 SSW 17 28 9 15 1012.3 1012.1 0.0
26/05:00am 21.2 17.3 7.1 40 7.2 SSW 17 24 9 13 1011.9 1011.7 0.0
26/04:30am 17.5 17.4 13.8 79 2.1 S 7 19 4 10 1011.6 1011.4 0.0
26/04:00am 14.3 14.0 13.2 93 0.6 WSW 7 11 4 6 1011.4 1011.2 0.0
26/03:30am 14.8 14.3 13.7 93 0.6 WNW 9 11 5 6 1011.3 1011.1 0.0
26/03:00am 14.4 14.2 13.1 92 0.7 WNW 6 7 3 4 1011.3 1011.1 0.0
26/02:30am 14.8 15.6 13.7 93 0.6 NW 2 6 1 3 1011.2 1011.0 0.0
26/02:00am 15.0 14.5 13.7 92 0.7 W 9 11 5 6 1011.2 1011.0 0.0
26/01:30am 15.6 17.0 14.5 93 0.6 CALM 0 0 0 0 1011.4 1011.2 0.0
26/01:00am 15.5 16.1 14.2 92 0.7 NE 4 7 2 4 1011.5 1011.3 0.0
26/12:30am 16.2 17.8 14.9 92 0.7 CALM 0 0 0 0 1011.6 1011.4 0.0
26/12:00am 16.5 18.1 14.9 90 0.9 CALM 0 0 0 0 1011.7 1011.5 0.0
 
Date/Time
EST
Temp
°C
App
Temp
°C
Dew
Point
Rel
Hum
%
Delta-T
°C
Wind Press
QNH
hPa
Press
MSL
hPa
Rain
since 9 am
mm
Dir
 
Spd
km/h
Gust
km/h
Spd
kts
Gust
kts
25/11:30pm 17.1 18.9 15.6 91 0.9 CALM 0 0 0 0 1011.6 1011.4 0.0
25/11:00pm 17.6 19.6 16.1 91 0.9 CALM 0 0 0 0 1011.8 1011.6 0.0
25/10:30pm 17.7 19.7 16.0 90 1.0 CALM 0 0 0 0 1011.9 1011.7 0.0
25/10:00pm 18.7 20.0 17.0 90 1.0 NW 6 7 3 4 1011.9 1011.7 0.0
25/09:30pm 18.5 20.6 16.3 87 1.3 CALM 0 0 0 0 1012.0 1011.8 0.0
25/09:00pm 19.9 21.3 17.7 87 1.4 NW 7 7 4 4 1011.8 1011.6 0.0
25/08:30pm 19.9 22.0 17.3 85 1.6 NNW 2 7 1 4 1011.8 1011.6 0.0
25/08:00pm 20.5 21.9 17.3 82 2.0 NNW 6 6 3 3 1011.6 1011.4 0.0
25/07:30pm 22.4 24.0 18.2 77 2.6 NNW 7 9 4 5 1011.2 1011.0 0.0
25/07:00pm 23.2 24.1 18.3 74 3.1 NNW 11 13 6 7 1010.7 1010.5 0.0
25/06:30pm 23.4 24.5 18.1 72 3.3 NNW 9 11 5 6 1010.2 1010.0 0.0
25/06:00pm 24.1 24.7 17.8 68 3.9 N 11 13 6 7 1009.9 1009.7 0.0
25/05:30pm 24.9 25.7 17.4 63 4.7 N 9 13 5 7 1009.7 1009.5 0.0
25/05:00pm 26.5 26.5 17.3 57 5.8 N 13 17 7 9 1009.2 1009.0 0.0
25/04:30pm 27.6 27.4 17.5 54 6.4 NNE 15 20 8 11 1009.0 1008.8 0.0
25/04:00pm 28.0 27.8 17.5 52 6.6 NE 15 24 8 13 1008.7 1008.5 0.0
25/03:30pm 28.9 27.8 15.4 44 8.3 N 15 22 8 12 1008.6 1008.4 0.0
25/03:00pm 29.8 28.9 15.9 43 8.6 N 15 19 8 10 1008.5 1008.3 0.0
25/02:30pm 29.8 31.0 17.3 47 7.9 NE 7 17 4 9 1008.5 1008.3 0.0
25/02:00pm 29.7 29.9 15.8 43 8.6 NNW 9 17 5 9 1008.6 1008.4 0.0
25/01:30pm 30.4 31.5 17.1 44 8.4 WSW 7 13 4 7 1009.0 1008.8 0.0
25/01:00pm 29.3 29.6 15.1 42 8.7 ENE 7 13 4 7 1009.4 1009.2 0.0
25/12:30pm 28.8 29.0 15.7 45 8.1 N 9 20 5 11 1009.8 1009.6 0.0
25/12:00pm 28.4 28.3 16.0 47 7.7 NNE 11 17 6 9 1010.2 1010.0 0.0
25/11:30am 27.7 27.1 15.7 48 7.4 N 13 20 7 11 1010.6 1010.4 0.0
25/11:00am 27.9 28.5 15.9 48 7.4 NNW 7 17 4 9 1011.1 1010.9 0.0
25/10:30am 27.3 27.4 15.6 48 7.2 NW 9 15 5 8 1011.4 1011.2 0.0
25/10:00am 26.5 26.6 16.4 53 6.2 NW 11 17 6 9 1011.8 1011.6 0.0
25/09:30am 25.8 26.6 17.2 59 5.4 NW 9 15 5 8 1011.9 1011.7 0.0
25/09:00am 23.9 25.6 17.2 66 4.2 WNW 4 7 2 4 1012.0 1011.8 0.0
25/08:30am 22.1 24.8 17.7 76 2.7 CALM 0 0 0 0 1012.0 1011.8 0.0
25/08:00am 19.5 21.9 16.9 85 1.6 CALM 0 0 0 0 1011.9 1011.7 0.0
25/07:30am 16.8 18.3 14.6 87 1.3 CALM 0 0 0 0 1011.6 1011.4 0.0
25/07:00am 15.2 16.4 13.7 91 0.8 CALM 0 0 0 0 1011.4 1011.2 0.0
25/06:30am 13.5 14.3 12.6 94 0.5 CALM 0 0 0 0 1011.1 1010.9 0.0
25/06:00am 13.2 13.9 12.1 93 0.6 CALM 0 0 0 0 1010.7 1010.5 0.0
25/05:30am 13.5 14.3 12.6 94 0.5 CALM 0 0 0 0 1010.6 1010.4 0.0
25/05:00am 13.4 14.1 12.3 93 0.6 CALM 0 0 0 0 1010.4 1010.2 0.0
25/04:30am 13.5 14.3 12.4 93 0.6 CALM 0 0 0 0 1010.2 1010.0 0.0
25/04:00am 14.0 14.9 12.9 93 0.6 CALM 0 0 0 0 1010.1 1009.9 0.0
25/03:30am 13.8 14.6 12.7 93 0.6 CALM 0 0 0 0 1010.2 1010.0 0.0
25/03:00am 13.8 14.6 12.7 93 0.6 CALM 0 0 0 0 1010.3 1010.1 0.0
25/02:30am 13.7 14.5 12.4 92 0.7 CALM 0 0 0 0 1010.3 1010.1 0.0
25/02:00am 14.3 15.3 13.2 93 0.6 CALM 0 0 0 0 1010.5 1010.3 0.0
25/01:30am 14.1 15.0 12.8 92 0.7 CALM 0 0 0 0 1010.5 1010.3 0.0
25/01:00am 14.6 15.7 13.5 93 0.6 CALM 0 0 0 0 1010.6 1010.4 0.0
25/12:30am 14.6 15.6 13.3 92 0.7 CALM 0 0 0 0 1010.9 1010.7 0.0
25/12:00am 15.1 16.3 13.8 92 0.7 CALM 0 0 0 0 1011.0 1010.8 0.0
 
Date/Time
EST
Temp
°C
App
Temp
°C
Dew
Point
Rel
Hum
%
Delta-T
°C
Wind Press
QNH
hPa
Press
MSL
hPa
Rain
since 9 am
mm
Dir
 
Spd
km/h
Gust
km/h
Spd
kts
Gust
kts
24/11:30pm 15.2 16.4 13.9 92 0.7 CALM 0 0 0 0 1010.9 1010.7 0.0
24/11:00pm 15.4 16.6 13.9 91 0.8 CALM 0 0 0 0 1011.0 1010.8 0.0
24/10:30pm 15.7 17.0 14.2 91 0.9 CALM 0 0 0 0 1011.1 1010.9 0.0
24/10:00pm 15.6 16.9 14.0 90 0.9 CALM 0 0 0 0 1011.3 1011.1 0.0
24/09:30pm 16.6 18.2 15.0 90 0.9 CALM 0 0 0 0 1011.3 1011.1 0.0
24/09:00pm 16.7 18.1 14.5 87 1.3 CALM 0 0 0 0 1011.2 1011.0 0.0
24/08:30pm 17.5 19.2 15.3 87 1.3 CALM 0 0 0 0 1011.1 1010.9 0.0
24/08:00pm 17.9 19.5 14.8 82 1.8 CALM 0 0 0 0 1010.9 1010.7 0.0
24/07:30pm 19.1 21.1 16.1 83 1.8 CALM 0 0 0 0 1010.6 1010.4 0.0
24/07:00pm 19.7 21.8 16.2 80 2.1 CALM 0 0 0 0 1010.1 1009.9 0.0
24/06:30pm 21.3 22.0 15.6 70 3.4 NNW 6 7 3 4 1009.7 1009.5 0.0
24/06:00pm 22.0 22.2 14.1 61 4.6 NNE 6 7 3 4 1009.5 1009.3 0.0
24/05:30pm 22.7 22.6 14.0 58 5.1 NNE 7 11 4 6 1009.3 1009.1 0.0
24/05:00pm 23.7 23.2 13.8 53 5.8 NE 9 13 5 7 1009.0 1008.8 0.0
24/04:30pm 24.9 23.5 13.5 49 6.7 NE 13 20 7 11 1008.7 1008.5 0.0
24/04:00pm 25.9 24.4 13.1 45 7.5 NE 13 20 7 11 1008.4 1008.2 0.0
24/03:30pm 26.3 24.2 12.4 42 8.0 NE 15 22 8 12 1008.3 1008.1 0.0
24/03:00pm 27.0 24.9 12.3 40 8.5 ENE 15 22 8 12 1008.3 1008.1 0.0
24/02:30pm 27.2 25.4 13.2 42 8.2 ENE 15 20 8 11 1008.4 1008.2 0.0
24/02:00pm 27.7 26.3 13.3 41 8.5 NE 13 17 7 9 1008.5 1008.3 0.0
24/01:30pm 28.2 27.3 12.5 37 9.2 NE 9 15 5 8 1008.7 1008.5 0.0
24/01:00pm 27.7 26.5 11.7 37 9.2 NNE 9 17 5 9 1009.1 1008.9 0.0
24/12:30pm 27.5 26.2 11.1 36 9.3 NNW 9 13 5 7 1009.4 1009.2 0.0
24/12:00pm 27.4 26.8 11.8 38 9.0 SE 6 11 3 6 1010.2 1010.0 0.0
24/11:30am 26.8 26.2 12.4 40 8.3 SW 7 11 4 6 1010.6 1010.4 0.0
24/11:00am 26.4 25.6 12.8 43 7.9 WNW 9 13 5 7 1010.9 1010.7 0.0
24/10:30am 26.2 26.4 13.0 44 7.7 NE 4 11 2 6 1011.4 1011.2 0.0
24/10:00am 25.1 25.1 13.6 49 6.8 SW 6 11 3 6 1011.8 1011.6 0.0
24/09:30am 24.5 24.1 14.0 52 6.2 WSW 9 13 5 7 1011.9 1011.7 0.0
24/09:00am 23.0 21.8 14.0 57 5.3 WSW 13 19 7 10 1012.1 1011.9 0.0
24/08:30am 21.4 21.4 15.3 68 3.6 SW 9 13 5 7 1012.3 1012.1 0.0
24/08:00am 17.9 18.2 14.4 80 2.0 SW 6 7 3 4 1012.1 1011.9 0.0
24/07:30am 14.8 15.7 12.8 88 1.1 CALM 0 0 0 0 1011.8 1011.6 0.0
24/07:00am 12.3 12.6 11.0 92 0.7 CALM 0 0 0 0 1011.3 1011.1 0.0
24/06:30am 11.1 11.2 10.2 94 0.5 CALM 0 0 0 0 1011.0 1010.8 0.0
24/06:00am 10.7 10.7 9.8 94 0.5 CALM 0 0 0 0 1010.8 1010.6 0.0
24/05:30am 10.9 11.0 10.0 94 0.5 CALM 0 0 0 0 1010.7 1010.5 0.0
24/05:00am 11.0 11.0 9.9 93 0.6 CALM 0 0 0 0 1010.7 1010.5 0.0
24/04:30am 11.3 11.5 10.4 94 0.5 CALM 0 0 0 0 1010.5 1010.3 0.0
24/04:00am 11.6 11.8 10.5 93 0.6 CALM 0 0 0 0 1010.6 1010.4 0.0
24/03:30am 11.8 12.1 10.9 94 0.5 CALM 0 0 0 0 1010.2 1010.0 0.0
24/03:00am 12.0 12.4 11.1 94 0.5 CALM 0 0 0 0 1010.6 1010.4 0.0
24/02:30am 12.0 12.4 11.1 94 0.5 CALM 0 7 0 4 1010.6 1010.4 0.0
24/02:00am 12.1 12.5 11.2 94 0.5 CALM 0 0 0 0 1011.0 1010.8 0.0
24/01:30am 12.4 12.9 11.5 94 0.5 CALM 0 0 0 0 1011.2 1011.0 0.0
24/01:00am 12.2 12.6 11.1 93 0.6 CALM 0 0 0 0 1011.3 1011.1 0.0
24/12:30am 12.7 13.3 11.8 94 0.5 CALM 0 2 0 1 1011.6 1011.4 0.0
24/12:00am 12.5 12.9 11.4 93 0.6 CALM 0 0 0 0 1011.6 1011.4 0.0
 
Date/Time
EST
Temp
°C
App
Temp
°C
Dew
Point
Rel
Hum
%
Delta-T
°C
Wind Press
QNH
hPa
Press
MSL
hPa
Rain
since 9 am
mm
Dir
 
Spd
km/h
Gust
km/h
Spd
kts
Gust
kts
23/11:30pm 12.8 13.3 11.7 93 0.6 CALM 0 0 0 0 1011.7 1011.5 0.0
23/11:00pm 13.0 13.6 11.9 93 0.6 CALM 0 0 0 0 1011.9 1011.7 0.0
23/10:30pm 13.0 12.8 11.7 92 0.7 ENE 4 9 2 5 1011.9 1011.7 0.0
23/10:00pm 13.4 14.1 12.1 92 0.7 CALM 0 0 0 0 1012.0 1011.8 0.0
23/09:30pm 13.5 14.2 12.2 92 0.7 CALM 0 0 0 0 1012.0 1011.8 0.0
23/09:00pm 14.2 15.1 12.8 91 0.8 CALM 0 0 0 0 1012.0 1011.8 0.0
23/08:30pm 14.7 15.3 13.2 91 0.8 WNW 2 7 1 4 1012.1 1011.9 0.0
23/08:00pm 14.9 15.8 12.9 88 1.1 CALM 0 0 0 0 1011.6 1011.4 0.0
23/07:30pm 15.6 16.6 13.3 86 1.3 CALM 0 0 0 0 1011.4 1011.2 0.0
23/07:00pm 16.4 17.6 13.9 85 1.4 CALM 0 0 0 0 1011.0 1010.8 0.0
23/06:30pm 17.0 17.8 12.7 76 2.4 CALM 0 0 0 0 1010.5 1010.3 0.0
23/06:00pm 19.4 19.6 11.7 61 4.3 ENE 2 6 1 3 1010.2 1010.0 0.0
23/05:30pm 21.1 19.8 11.2 53 5.5 ENE 9 11 5 6 1009.8 1009.6 0.0
23/05:00pm 22.6 21.3 11.4 49 6.3 E 9 13 5 7 1009.5 1009.3 0.0
23/04:30pm 23.2 21.1 11.3 47 6.7 E 13 19 7 10 1009.2 1009.0 0.0
23/04:00pm 23.8 22.6 11.5 46 6.9 ESE 9 17 5 9 1009.2 1009.0 0.0
23/03:30pm 23.9 21.8 11.2 44 7.1 SE 13 20 7 11 1009.3 1009.1 0.0
23/03:00pm 24.2 22.3 10.5 42 7.6 E 11 20 6 11 1009.4 1009.2 0.0

Other Formats:

Comma delimited format used in spreadsheet applications
http://www.bom.gov.au/fwo/IDQ60801/IDQ60801.94370.axf

JavaScript Object Notation format (JSON) in row-major order
http://www.bom.gov.au/fwo/IDQ60801/IDQ60801.94370.json